Location: Balsareny
(41.8670°N, 1.8830°E)
Time: 21:15:18
(UTC+02:00)

Envisat - Pass Details

Date: 21 August 2024
Orbit: 762 x 764 km, 98.3° (Epoch: 12 September)

Event Time Altitude Azimuth Distance (km) Brightness Sun altitude
Rises 03:35:22 0° 36° (NE) 3,232 7.4 -31.5°
Reaches altitude 10° 03:39:23 10° 68° (ENE) 2,299 6.0 -31.1°
Maximum altitude 03:41:10 12° 88° (E) 2,175 5.7 -30.9°
Drops below altitude 10° 03:42:57 10° 109° (ESE) 2,293 5.6 -30.8°
Enters shadow 03:43:21 - 114° (ESE) 2,350 5.6 -30.7°
